Regional Weather Roundup
Issued by NWS Goodland, KS

Current Version | Previous Version | Text Only | Print | Product List | Glossary On
Versions: 1 2 3 4 5 6 7 8 9 10 11 12 13 14 15 16 17 18 19 20 21 22 23 24 25 26 27 28 29 30 31 32 33 34 35 36 37 38 39 40 41 42 43 44 45 46 47 48 49 50
000
ASUS43 KGLD 302308
RWRGLD

GOODLAND FORECAST AREA HOURLY WEATHER ROUNDUP
NATIONAL WEATHER SERVICE GOODLAND KS
500 PM MDT SAT APR 30 2016

...OFFICIAL OBSERVATIONS...

CITY           SKY/WX    TMP DP  RH WIND       PRES   REMARKS
GOODLAND KS    CLOUDY    37  33  85 N23       29.89R
HILL CITY KS   CLOUDY    47  38  71 NW12      29.85R
IMPERIAL NEB   CLOUDY    37  34  89 N20       29.92R
MCCOOK NEB     CLOUDY    40  35  83 N13       29.87R
AKRON CO       SNOW      32  30  92 N22       29.99R VSB 1/2 WCI  19
BURLINGTON CO  MIX PCPN  36  32  85 N21G32    29.92R
LIMON CO       LGT SNOW  33  30  88 N35G43    29.98R FOG     WCI  18
$$

...UNOFFICIAL OBSERVATIONS...

CITY           SKY/WX    TMP DP  RH WIND       PRES   REMARKS
COLBY KS       CLOUDY    39  37  93 NW18      29.89R
GOVE KS          N/A     45  32  60 MISG        N/A
LENORA KS        N/A     43  32  65 MISG        N/A
NORTON KS      CLOUDY    43  36  75 NW13      29.84R
SHARON SPRINGS   N/A     41  35  79 N23G33      N/A
KIT CARSON CO    N/A     38  33  81 MISG        N/A
YUMA CO          N/A     34  33  95 N12G18      N/A
$$




USA.gov is the U.S. government's official web portal to all federal, state and local government web resources and services.